When you browse on this site, cookies collect data to enhance your experience and personalize the content and advertising you see.
Visit our Privacy Policy to learn more. By continuing to use the site, you agree to this use of cookies and data.
  • In United Kingdom
  • List of Countries
  • For 7 days
  • Water Temperature
  • Weather Map
  • Weather Widgets
  • user-avatar
    Login

    Hourly Weather Kidsgrove

    Today, 1 June, Monday

    Time Temperature Precipitation Wind Pressure Humidity
    00:00 +10°C° 0 mm 3 mps 753 mmHg 78%
    01:00 +9°C° 0 mm 3 mps 753 mmHg 79%
    02:00 +8°C° 0 mm 3 mps 752 mmHg 80%
    03:00 +8°C° 0 mm 2 mps 752 mmHg 81%
    04:00 +9°C° 0 mm 2 mps 753 mmHg 79%
    05:00 +10°C° 0 mm 3 mps 753 mmHg 78%
    06:00 +11°C° 0 mm 3 mps 753 mmHg 78%
    07:00 +13°C° 0 mm 3 mps 753 mmHg 74%
    08:00 +15°C° 0 mm 4 mps 753 mmHg 69%
    09:00 +17°C° 0 mm 4 mps 753 mmHg 64%
    10:00 +18°C° 0 mm 4 mps 753 mmHg 61%
    11:00 +19°C° 0 mm 4 mps 753 mmHg 59%
    12:00 +20°C° 0 mm 4 mps 752 mmHg 55%
    13:00 +21°C° 0 mm 3 mps 752 mmHg 55%
    14:00 +21°C° 0 mm 3 mps 752 mmHg 55%
    15:00 +21°C° 0 mm 3 mps 752 mmHg 55%
    16:00 +21°C° 0 mm 3 mps 752 mmHg 59%
    17:00 +20°C° 0 mm 3 mps 752 mmHg 63%
    18:00 +20°C° 0 mm 2 mps 752 mmHg 68%
    19:00 +18°C° 0 mm 3 mps 752 mmHg 74%
    20:00 +16°C° 0 mm 3 mps 752 mmHg 81%
    21:00 +13°C° 0 mm 3 mps 752 mmHg 87%
    22:00 +13°C° 0 mm 2 mps 752 mmHg 86%
    23:00 +12°C° 0 mm 2 mps 752 mmHg 84%

    Tomorrow, 2 June, Tuesday

    Time Temperature Precipitation Wind Pressure Humidity
    00:00 +10°C° 0 mm 2 mps 752 mmHg 83%
    01:00 +10°C° 0 mm 1 mps 752 mmHg 83%
    02:00 +10°C° 0 mm 1 mps 751 mmHg 83%
    03:00 +9°C° 0 mm 1 mps 751 mmHg 83%
    04:00 +10°C° 0 mm 1 mps 751 mmHg 79%
    05:00 +11°C° 0 mm 1 mps 751 mmHg 76%
    06:00 +11°C° 0 mm 0 mps 751 mmHg 73%
    07:00 +13°C° 0 mm 1 mps 751 mmHg 68%
    08:00 +15°C° 0 mm 1 mps 751 mmHg 63%
    09:00 +18°C° 0 mm 1 mps 750 mmHg 58%
    10:00 +19°C° 0 mm 1 mps 750 mmHg 53%
    11:00 +20°C° 0 mm 1 mps 750 mmHg 49%
    12:00 +21°C° 0 mm 1 mps 750 mmHg 45%
    13:00 +20°C° 0 mm 2 mps 749 mmHg 45%
    14:00 +21°C° 0 mm 2 mps 748 mmHg 45%
    15:00 +21°C° 0 mm 3 mps 748 mmHg 45%
    16:00 +21°C° 0 mm 3 mps 747 mmHg 51%
    17:00 +20°C° 0 mm 4 mps 747 mmHg 58%
    18:00 +19°C° 0 mm 4 mps 746 mmHg 65%
    19:00 +17°C° 0 mm 4 mps 746 mmHg 67%
    20:00 +16°C° 0 mm 3 mps 746 mmHg 70%
    21:00 +14°C° 0 mm 2 mps 745 mmHg 72%
    22:00 +13°C° 0 mm 2 mps 745 mmHg 72%
    23:00 +13°C° 0 mm 2 mps 745 mmHg 71%

    Day after tomorrow, 3 June, Wednesday

    Time Temperature Precipitation Wind Pressure Humidity
    00:00 +13°C° 0 mm 2 mps 744 mmHg 71%
    01:00 +13°C° 0 mm 2 mps 744 mmHg 73%
    02:00 +13°C° 0 mm 2 mps 743 mmHg 75%
    03:00 +13°C° 0 mm 2 mps 743 mmHg 77%
    04:00 +13°C° 0.3 mm 2 mps 742 mmHg 81%
    05:00 +12°C° 0.3 mm 3 mps 742 mmHg 86%
    06:00 +12°C° 0.3 mm 3 mps 742 mmHg 90%
    07:00 +11°C° 0.4 mm 3 mps 742 mmHg 91%
    08:00 +11°C° 0.4 mm 4 mps 742 mmHg 91%
    09:00 +11°C° 0.4 mm 4 mps 742 mmHg 91%
    10:00 +11°C° 0.1 mm 4 mps 742 mmHg 88%
    11:00 +12°C° 0.1 mm 4 mps 742 mmHg 85%
    12:00 +12°C° 0.1 mm 5 mps 742 mmHg 82%
    13:00 +12°C° 0.1 mm 5 mps 742 mmHg 83%
    14:00 +11°C° 0.1 mm 4 mps 742 mmHg 84%
    15:00 +11°C° 0.1 mm 4 mps 742 mmHg 85%
    16:00 +12°C° 0 mm 4 mps 742 mmHg 83%
    17:00 +12°C° 0 mm 4 mps 742 mmHg 80%
    18:00 +13°C° 0 mm 4 mps 742 mmHg 78%
    19:00 +12°C° 0 mm 4 mps 742 mmHg 80%
    20:00 +11°C° 0 mm 4 mps 742 mmHg 82%
    21:00 +10°C° 0 mm 4 mps 742 mmHg 84%
    22:00 +10°C° 0 mm 4 mps 742 mmHg 83%
    23:00 +10°C° 0 mm 4 mps 742 mmHg 81%

    4 June, Thursday

    Time Temperature Precipitation Wind Pressure Humidity
    00:00 +8°C° 0 mm 4 mps 742 mmHg 80%
    01:00 +8°C° 0 mm 4 mps 741 mmHg 80%
    02:00 +8°C° 0 mm 3 mps 741 mmHg 80%
    03:00 +7°C° 0 mm 3 mps 740 mmHg 80%
    04:00 +8°C° 0 mm 3 mps 740 mmHg 78%
    05:00 +8°C° 0 mm 3 mps 740 mmHg 75%
    06:00 +8°C° 0 mm 3 mps 740 mmHg 73%
    07:00 +9°C° 0 mm 3 mps 739 mmHg 70%
    08:00 +9°C° 0 mm 3 mps 739 mmHg 67%
    09:00 +9°C° 0 mm 3 mps 739 mmHg 64%
    10:00 +10°C° 0.1 mm 3 mps 739 mmHg 64%
    11:00 +11°C° 0.1 mm 3 mps 738 mmHg 63%
    12:00 +12°C° 0.1 mm 4 mps 738 mmHg 63%
    13:00 +12°C° 0.2 mm 4 mps 737 mmHg 63%
    14:00 +13°C° 0.2 mm 5 mps 737 mmHg 63%
    15:00 +13°C° 0.2 mm 5 mps 737 mmHg 64%
    16:00 +13°C° 0.4 mm 5 mps 736 mmHg 69%
    17:00 +12°C° 0.4 mm 5 mps 736 mmHg 74%
    18:00 +12°C° 0.4 mm 5 mps 736 mmHg 80%
    19:00 +10°C° 0.4 mm 4 mps 736 mmHg 83%
    20:00 +9°C° 0.4 mm 3 mps 736 mmHg 86%
    21:00 +7°C° 0.4 mm 2 mps 737 mmHg 89%
    22:00 +7°C° 0 mm 2 mps 736 mmHg 88%
    23:00 +6°C° 0 mm 2 mps 736 mmHg 87%

    5 June, Friday

    Time Temperature Precipitation Wind Pressure Humidity
    00:00 +6°C° 0 mm 1 mps 736 mmHg 86%
    01:00 +5°C° 0 mm 1 mps 736 mmHg 86%
    02:00 +4°C° 0 mm 2 mps 737 mmHg 86%
    03:00 +4°C° 0 mm 2 mps 737 mmHg 86%
    04:00 +5°C° 0 mm 2 mps 737 mmHg 85%
    05:00 +6°C° 0 mm 2 mps 736 mmHg 85%
    06:00 +7°C° 0 mm 2 mps 736 mmHg 84%
    07:00 +8°C° 0 mm 3 mps 736 mmHg 78%
    08:00 +10°C° 0 mm 4 mps 736 mmHg 72%
    09:00 +12°C° 0 mm 5 mps 736 mmHg 66%
    10:00 +11°C° 0.1 mm 6 mps 736 mmHg 63%
    11:00 +12°C° 0.1 mm 7 mps 736 mmHg 60%
    12:00 +12°C° 0.1 mm 7 mps 736 mmHg 57%
    13:00 +12°C° 0 mm 7 mps 735 mmHg 57%
    14:00 +12°C° 0 mm 7 mps 735 mmHg 58%
    15:00 +11°C° 0 mm 7 mps 735 mmHg 59%
    16:00 +11°C° 0.1 mm 6 mps 734 mmHg 66%
    17:00 +10°C° 0.1 mm 5 mps 734 mmHg 73%
    18:00 +10°C° 0.1 mm 3 mps 734 mmHg 81%
    19:00 +10°C° 0.2 mm 3 mps 734 mmHg 85%
    20:00 +9°C° 0.2 mm 2 mps 734 mmHg 89%
    21:00 +9°C° 0.2 mm 2 mps 734 mmHg 94%
    22:00 +8°C° 0.2 mm 2 mps 734 mmHg 94%
    23:00 +8°C° 0.2 mm 2 mps 734 mmHg 94%

    6 June, Saturday

    Time Temperature Precipitation Wind Pressure Humidity
    00:00 +8°C° 0.2 mm 3 mps 734 mmHg 95%
    01:00 +8°C° 0.1 mm 3 mps 734 mmHg 94%
    02:00 +7°C° 0.1 mm 3 mps 734 mmHg 94%
    03:00 +7°C° 0.1 mm 3 mps 734 mmHg 94%
    04:00 +7°C° 0.1 mm 4 mps 735 mmHg 92%
    05:00 +7°C° 0.1 mm 4 mps 735 mmHg 90%
    06:00 +7°C° 0.1 mm 4 mps 735 mmHg 87%
    07:00 +8°C° 0.1 mm 5 mps 735 mmHg 78%
    08:00 +9°C° 0.1 mm 6 mps 736 mmHg 69%
    09:00 +9°C° 0.1 mm 7 mps 736 mmHg 60%
    10:00 +10°C° 0.1 mm 8 mps 736 mmHg 59%
    11:00 +10°C° 0.1 mm 8 mps 736 mmHg 59%
    12:00 +10°C° 0.1 mm 9 mps 736 mmHg 58%
    13:00 +10°C° 0.1 mm 9 mps 736 mmHg 56%
    14:00 +10°C° 0.1 mm 9 mps 736 mmHg 55%
    15:00 +9°C° 0.1 mm 10 mps 736 mmHg 53%
    16:00 +8°C° 0 mm 9 mps 736 mmHg 55%
    17:00 +8°C° 0 mm 9 mps 736 mmHg 56%
    18:00 +7°C° 0 mm 9 mps 736 mmHg 58%
    19:00 +6°C° 0 mm 8 mps 736 mmHg 62%
    20:00 +5°C° 0 mm 7 mps 737 mmHg 67%
    21:00 +4°C° 0 mm 6 mps 737 mmHg 71%
    22:00 +4°C° 0 mm 6 mps 737 mmHg 72%
    23:00 +4°C° 0 mm 7 mps 737 mmHg 74%
    Show more